Погода в Менделеевске

Россия / Республика Татарстан     55°53′42″N   52°18′51″E
темп.,
°C
ветер,
м/с
пор.,
м/с
влажн.,
%
обл.,
%
осадки,
мм/ч
давл.,
гПа
погр.,
м
4 марта, чт
чт400:00−9з499572 0.0 1002198
03:00−11зюз499659 0.0 1002155
06:00−10юз4109698 0.0 1001261
09:00−7юз6109499 0.3 999435
12:00−4юз71293100 0.3 997673
15:00−2ююз81396100 0.9 994869
18:00−1юз91696100 2.7 990961
21:00−3зюз9168599 3.4 990913
5 марта, пт
пт500:00−5з101889100 0.1 992842
03:00−6з81389100 0.3 996722
06:00−10з5119497 0.0 999296
09:00−10зсз589388 0.1 1001295
12:00−8зсз478620 0.0 1003429
15:00−8зсз468410 0.0 1005504
18:00−13з34910 0.0 100750
21:00−15з34870 0.0 100936
6 марта, сб
сб600:00−15зюз349613 0.0 101072
03:00−15зюз469720 0.0 1011102
06:00−16зюз349784 0.1 101173
09:00−12зюз359485 0.1 1012240
12:00−9зюз349093 0.1 1011370
15:00−9зюз238996 0.1 1010440
18:00−11з339697 0.1 101058
21:00−15сз379399 0.2 1010168
7 марта, вс
вс700:00−21сз349669 0.0 101050
03:00−22сз349853 0.0 101145
06:00−23з33980 0.0 101232
09:00−19зюз36951 0.0 1013228
12:00−15юз469388 0.0 1012331
15:00−13ююз489292 0.0 1011374
18:00−16ю4119591 0.0 1009269
21:00−14ю6139095 0.0 1006448
8 марта, пн
пн800:00−12ю61395100 0.8 1002568
03:00−10ю71593100 2.3 998751
06:00−7ю71595100 0.6 995798
09:00−5з81183100 2.1 994847
12:00−6юз7117664 0.0 9951036
15:00−6юз8128682 0.3 9961226
18:00−9юз81588100 0.1 998927
21:00−9зюз91591100 0.5 1000833